START_TIME,STEP,MOV.,M6,t_acc.,M7,t_acc.,M19,t_acc.,H36,t_acc.
1986-01-24 03:00:04.620 ,3,1,0.,12.0,0.,12.0,0.,12.0,0.,12.0
1986-01-24 03:00:16.620 ,3,1,0.,12.0,0.,12.0,0.,12.0,0.,12.0
1986-01-24 03:00:28.620 ,3,0,0.,12.0,0.,12.0,0.,12.0,0.,12.0
1986-01-24 03:00:40.620 ,3,0,0.,12.0,0.,12.0,0.,12.0,0.,12.0
1986-01-24 03:00:52.620 ,2,1,0.,12.0,0.,12.0,0.,12.0,0.,12.0
1986-01-24 03:01:04.620 ,2,1,0.,12.0,0.,12.0,0.,12.0,0.,12.0
1986-01-24 03:01:16.620 ,2,0,0.,12.0,0.,12.0,0.,12.0,0.,12.0
1986-01-24 03:01:28.620 ,2,0,0.,12.0,0.,12.0,0.,12.0,0.,12.0
1986-01-24 03:01:40.620 ,1,1,0.,12.0,0.,12.0,0.,12.0,0.,12.0
1986-01-24 03:01:52.620 ,1,1,0.,12.0,0.,12.0,0.,12.0,0.,12.0
1986-01-24 03:02:04.620 ,1,0,0.,12.0,0.,12.0,0.,12.0,0.,12.0
1986-01-24 03:02:16.620 ,1,0,0.,12.0,0.,12.0,0.,12.0,0.,12.0
1986-01-24 03:02:28.620 ,0,1,0.,12.0,0.,12.0,0.,12.0,0.,12.0
1986-01-24 03:02:40.620 ,0,1,0.,12.0,0.,12.0,0.,12.0,0.,12.0
1986-01-24 03:02:52.620 ,0,0,0.,12.0,0.,12.0,0.,12.0,0.,12.0
1986-01-24 03:03:04.620 ,0,0,0.,12.0,0.,12.0,0.,12.0,0.,12.0
1986-01-24 03:03:16.620 ,0,1,0.,12.0,0.,12.0,0.,12.0,0.,12.0
1986-01-24 03:03:28.620 ,0,1,0.,12.0,0.,12.0,0.,12.0,0.,12.0
1986-01-24 03:03:40.620 ,0,0,0.,12.0,0.,12.0,0.,12.0,0.,12.0
1986-01-24 03:03:52.620 ,0,0,0.,12.0,0.,12.0,0.,12.0,0.,12.0
1986-01-24 03:04:04.620 ,1,1,0.,12.0,0.,12.0,0.,12.0,0.,12.0
1986-01-24 03:04:16.620 ,1,1,0.,12.0,0.,12.0,0.,12.0,0.,12.0
1986-01-24 03:04:28.620 ,1,0,0.,12.0,0.,12.0,0.,12.0,0.,12.0
1986-01-24 03:04:40.620 ,1,0,0.,12.0,0.,12.0,0.,12.0,0.,12.0
1986-01-24 03:04:52.620 ,2,1,0.,12.0,0.,12.0,0.,12.0,0.,12.0
1986-01-24 03:05:04.620 ,2,1,0.,12.0,0.,12.0,0.,12.0,0.,12.0
1986-01-24 03:05:16.620 ,2,0,0.,12.0,0.,12.0,0.,12.0,0.,12.0
1986-01-24 03:05:28.620 ,2,0,0.,12.0,0.,12.0,0.,12.0,0.,12.0
1986-01-24 03:05:40.620 ,3,1,0.,12.0,0.,12.0,0.,12.0,0.,12.0
1986-01-24 03:05:52.620 ,3,1,0.,12.0,0.,12.0,0.,12.0,0.,12.0
1986-01-24 03:06:04.620 ,3,0,0.,12.0,0.,12.0,0.,12.0,0.,12.0
1986-01-24 03:06:16.620 ,3,0,0.,12.0,0.,12.0,0.,12.0,0.,12.0
1986-01-24 03:06:28.620 ,4,1,0.,12.0,0.,12.0,0.,12.0,0.,12.0
1986-01-24 03:06:40.620 ,4,1,0.,12.0,0.,12.0,0.,12.0,0.,12.0
1986-01-24 03:06:52.620 ,4,0,0.,12.0,0.,12.0,0.,12.0,0.,12.0
1986-01-24 03:07:04.620 ,4,0,0.,12.0,0.,12.0,0.,12.0,0.,12.0
1986-01-24 03:07:16.620 ,5,1,0.,12.0,0.,12.0,0.,12.0,0.,12.0
1986-01-24 03:07:28.620 ,5,1,0.,12.0,0.,12.0,0.,12.0,0.,12.0
1986-01-24 03:07:40.620 ,5,0,0.,12.0,0.,12.0,0.,12.0,0.,12.0
1986-01-24 03:07:52.620 ,5,0,0.,12.0,0.,12.0,0.,12.0,0.,12.0
1986-01-24 03:08:04.620 ,6,1,0.,12.0,0.,12.0,0.,12.0,0.,12.0
1986-01-24 03:08:16.620 ,6,1,0.,12.0,0.,12.0,0.,12.0,0.,12.0
1986-01-24 03:08:28.620 ,6,0,0.,12.0,0.,12.0,0.,12.0,0.,12.0
1986-01-24 03:08:40.620 ,6,0,0.,12.0,0.,12.0,0.,12.0,0.,12.0
1986-01-24 03:08:52.620 ,7,1,0.,12.0,0.,12.0,0.,12.0,0.,12.0
1986-01-24 03:09:04.620 ,7,1,0.,12.0,0.,12.0,0.,12.0,0.,12.0
1986-01-24 03:09:16.620 ,7,0,0.,12.0,0.,12.0,0.,12.0,0.,12.0
1986-01-24 03:09:28.620 ,7,0,0.,12.0,0.,12.0,0.,12.0,0.,12.0
1986-01-24 03:09:40.620 ,7,1,0.,12.0,0.,12.0,0.,12.0,0.,12.0
1986-01-24 03:09:52.620 ,7,1,0.,12.0,0.,12.0,0.,12.0,0.,12.0
1986-01-24 03:10:04.620 ,7,0,0.,12.0,0.,12.0,0.,12.0,0.,12.0
1986-01-24 03:10:16.620 ,7,0,0.,12.0,0.,12.0,0.,12.0,0.,12.0
1986-01-24 03:10:28.620 ,6,1,0.,12.0,0.,12.0,0.,12.0,0.,12.0
1986-01-24 03:10:40.620 ,6,1,0.,12.0,0.,12.0,0.,12.0,0.,12.0
1986-01-24 03:10:52.620 ,6,0,0.,12.0,0.,12.0,0.,12.0,0.,12.0
1986-01-24 03:11:04.620 ,6,0,0.,12.0,0.,12.0,0.,12.0,0.,12.0
1986-01-24 03:11:40.620 ,5,0,0.,12.0,0.,12.0,0.,12.0,0.,12.0
1986-01-24 03:11:52.620 ,5,0,0.,12.0,0.,12.0,0.,12.0,0.,12.0
1986-01-24 03:12:04.620 ,4,1,0.,12.0,0.,12.0,0.,12.0,0.,12.0
1986-01-24 03:12:16.620 ,4,1,0.,12.0,0.,12.0,0.,12.0,0.,12.0
1986-01-24 03:12:28.620 ,4,0,0.,12.0,0.,12.0,0.,12.0,0.,12.0
1986-01-24 03:12:40.620 ,4,0,0.,12.0,0.,12.0,0.,12.0,0.,12.0
1986-01-24 03:12:52.620 ,3,1,0.,12.0,0.,12.0,0.,12.0,0.,12.0
1986-01-24 03:13:04.620 ,3,1,0.,12.0,0.,12.0,0.,12.0,0.,12.0
1986-01-24 03:13:16.620 ,3,0,0.,12.0,0.,12.0,0.,12.0,0.,12.0
1986-01-24 03:13:28.620 ,3,0,0.,12.0,0.,12.0,0.,12.0,0.,12.0
1986-01-24 03:13:40.620 ,2,1,0.,12.0,0.,12.0,0.,12.0,0.,12.0
1986-01-24 03:13:52.620 ,2,1,0.,12.0,0.,12.0,0.,12.0,0.,12.0
1986-01-24 03:14:04.620 ,2,0,0.,12.0,0.,12.0,0.,12.0,0.,12.0
1986-01-24 03:14:16.620 ,2,0,0.,12.0,0.,12.0,0.,12.0,0.,12.0
1986-01-24 03:14:28.620 ,1,1,0.,12.0,0.,12.0,0.,12.0,0.,12.0
1986-01-24 03:14:40.620 ,1,1,0.,12.0,0.,12.0,0.,12.0,0.,12.0
1986-01-24 03:14:52.620 ,1,0,0.,12.0,0.,12.0,0.,12.0,0.,12.0
1986-01-24 03:15:04.620 ,1,0,0.,12.0,0.,12.0,0.,12.0,0.,12.0
1986-01-24 03:15:16.620 ,0,1,0.,12.0,0.,12.0,0.,12.0,0.,12.0
1986-01-24 03:15:28.620 ,0,1,0.,12.0,0.,12.0,0.,12.0,0.,12.0
1986-01-24 03:15:40.620 ,0,0,0.,12.0,0.,12.0,0.,12.0,0.,12.0
1986-01-24 03:15:52.620 ,0,0,0.,12.0,0.,12.0,0.,12.0,0.,12.0
1986-01-24 03:16:04.620 ,0,1,0.,12.0,0.,12.0,0.,12.0,0.,12.0
1986-01-24 03:16:16.620 ,0,1,0.,12.0,0.,12.0,0.,12.0,0.,12.0
1986-01-24 03:16:28.620 ,0,0,0.,12.0,0.,12.0,0.,12.0,0.,12.0
1986-01-24 03:16:40.620 ,0,0,0.,12.0,0.,12.0,0.,12.0,0.,12.0
1986-01-24 03:16:52.620 ,1,1,0.,12.0,0.,12.0,0.,12.0,0.,12.0
1986-01-24 03:17:04.620 ,1,1,0.,12.0,0.,12.0,0.,12.0,0.,12.0
1986-01-24 03:17:16.620 ,1,0,0.,12.0,0.,12.0,0.,12.0,0.,12.0
1986-01-24 03:17:28.620 ,1,0,0.,12.0,0.,12.0,0.,12.0,0.,12.0
1986-01-24 03:17:40.620 ,2,1,0.,12.0,0.,12.0,0.,12.0,0.,12.0
1986-01-24 03:17:52.620 ,2,1,0.,12.0,0.,12.0,0.,12.0,0.,12.0
1986-01-24 03:18:04.620 ,2,0,0.,12.0,0.,12.0,0.,12.0,0.,12.0
1986-01-24 03:18:16.620 ,2,0,0.,12.0,0.,12.0,0.,12.0,0.,12.0
1986-01-24 03:18:28.620 ,3,1,0.,12.0,0.,12.0,0.,12.0,0.,12.0
1986-01-24 03:18:40.620 ,3,1,0.,12.0,0.,12.0,0.,12.0,0.,12.0
1986-01-24 03:18:52.620 ,3,0,0.,12.0,0.,12.0,0.,12.0,0.,12.0
1986-01-24 03:19:04.620 ,3,0,0.,12.0,0.,12.0,0.,12.0,0.,12.0
1986-01-24 03:19:16.620 ,4,1,0.,12.0,0.,12.0,0.,12.0,0.,12.0
1986-01-24 03:19:28.620 ,4,1,0.,12.0,0.,12.0,0.,12.0,0.,12.0
1986-01-24 03:19:40.620 ,4,0,0.,12.0,0.,12.0,0.,12.0,0.,12.0
1986-01-24 03:19:52.620 ,4,0,0.,12.0,0.,12.0,0.,12.0,0.,12.0
1986-01-24 03:20:04.620 ,5,1,0.,12.0,0.,12.0,0.,12.0,0.,12.0
1986-01-24 03:20:16.620 ,5,1,0.,12.0,0.,12.0,0.,12.0,0.,12.0
1986-01-24 03:20:28.620 ,5,0,0.,12.0,0.,12.0,0.,12.0,0.,12.0
1986-01-24 03:20:40.620 ,5,0,0.,12.0,0.,12.0,0.,12.0,0.,12.0
1986-01-24 03:20:52.620 ,6,1,0.,12.0,0.,12.0,0.,12.0,0.,12.0
1986-01-24 03:21:04.620 ,6,1,0.,12.0,0.,12.0,0.,12.0,0.,12.0
1986-01-24 03:21:16.620 ,6,0,0.,12.0,0.,12.0,0.,12.0,0.,12.0
1986-01-24 03:21:28.620 ,6,0,0.,12.0,0.,12.0,0.,12.0,0.,12.0
1986-01-24 03:21:40.620 ,7,1,0.,12.0,0.,12.0,0.,12.0,0.,12.0
1986-01-24 03:21:52.620 ,7,1,0.,12.0,0.,12.0,0.,12.0,0.,12.0
1986-01-24 03:22:04.620 ,7,0,0.,12.0,0.,12.0,0.,12.0,0.,12.0
1986-01-24 03:22:16.620 ,7,0,0.,12.0,0.,12.0,0.,12.0,0.,12.0
1986-01-24 03:22:28.620 ,7,1,0.,12.0,0.,12.0,0.,12.0,0.,12.0
1986-01-24 03:22:40.620 ,7,1,0.,12.0,0.,12.0,0.,12.0,0.,12.0
1986-01-24 03:22:52.620 ,7,0,0.,12.0,0.,12.0,0.,12.0,0.,12.0
1986-01-24 03:23:04.620 ,7,0,0.,12.0,0.,12.0,0.,12.0,0.,12.0
1986-01-24 03:23:16.620 ,6,1,0.,12.0,0.,12.0,0.,12.0,0.,12.0
1986-01-24 03:23:28.620 ,6,1,0.,12.0,0.,12.0,0.,12.0,0.,12.0
1986-01-24 03:23:40.620 ,6,0,0.,12.0,0.,12.0,0.,12.0,0.,12.0
1986-01-24 03:23:52.620 ,6,0,0.,12.0,0.,12.0,0.,12.0,0.,12.0
1986-01-24 03:24:04.620 ,5,1,0.,12.0,0.,12.0,0.,12.0,0.,12.0
1986-01-24 03:24:16.620 ,5,1,0.,12.0,0.,12.0,0.,12.0,0.,12.0
1986-01-24 03:24:28.620 ,5,0,0.,12.0,0.,12.0,0.,12.0,0.,12.0
1986-01-24 03:24:40.620 ,5,0,0.,12.0,0.,12.0,0.,12.0,0.,12.0
1986-01-24 03:24:52.620 ,4,1,0.,12.0,0.,12.0,0.,12.0,0.,12.0
1986-01-24 03:25:04.620 ,4,1,0.,12.0,0.,12.0,0.,12.0,0.,12.0
1986-01-24 03:25:16.620 ,4,0,0.,12.0,0.,12.0,0.,12.0,0.,12.0
1986-01-24 03:25:28.620 ,4,0,0.,12.0,0.,12.0,0.,12.0,0.,12.0
1986-01-24 03:25:40.620 ,3,1,0.,12.0,0.,12.0,0.,12.0,0.,12.0
1986-01-24 03:25:52.620 ,3,1,0.,12.0,0.,12.0,0.,12.0,0.,12.0
1986-01-24 03:26:04.620 ,3,0,0.,12.0,0.,12.0,0.,12.0,0.,12.0
1986-01-24 03:26:16.620 ,3,0,0.,12.0,0.,12.0,0.,12.0,0.,12.0
1986-01-24 03:26:28.620 ,2,1,0.,12.0,0.,12.0,0.,12.0,0.,12.0
1986-01-24 03:26:40.620 ,2,1,0.,12.0,0.,12.0,0.,12.0,0.,12.0
1986-01-24 03:26:52.620 ,2,0,0.,12.0,0.,12.0,0.,12.0,0.,12.0
1986-01-24 03:27:04.620 ,2,0,0.,12.0,0.,12.0,0.,12.0,0.,12.0
1986-01-24 03:27:16.620 ,1,1,0.,12.0,0.,12.0,0.,12.0,0.,12.0
1986-01-24 03:27:28.620 ,1,1,0.,12.0,0.,12.0,0.,12.0,0.,12.0
1986-01-24 03:27:40.620 ,1,0,0.,12.0,0.,12.0,0.,12.0,0.,12.0
1986-01-24 03:27:52.620 ,1,0,0.,12.0,0.,12.0,0.,12.0,0.,12.0
1986-01-24 03:28:04.620 ,0,1,0.,12.0,0.,12.0,0.,12.0,0.,12.0
1986-01-24 03:28:16.620 ,0,1,0.,12.0,0.,12.0,0.,12.0,0.,12.0
1986-01-24 03:28:28.620 ,0,0,0.,12.0,0.,12.0,0.,12.0,0.,12.0
1986-01-24 03:28:40.620 ,0,0,0.,12.0,0.,12.0,0.,12.0,0.,12.0
1986-01-24 03:28:52.620 ,0,1,0.,12.0,0.,12.0,0.,12.0,0.,12.0
1986-01-24 03:29:04.620 ,0,1,0.,12.0,0.,12.0,0.,12.0,0.,12.0
1986-01-24 03:29:16.620 ,0,0,0.,12.0,0.,12.0,0.,12.0,0.,12.0
1986-01-24 03:29:28.620 ,0,0,0.,12.0,0.,12.0,0.,12.0,0.,12.0
1986-01-24 03:29:40.620 ,1,1,0.,12.0,0.,12.0,0.,12.0,0.,12.0
1986-01-24 03:29:52.620 ,1,1,0.,12.0,0.,12.0,0.,12.0,0.,12.0
1986-01-24 03:30:04.620 ,1,0,0.,12.0,0.,12.0,0.,12.0,0.,12.0
1986-01-24 03:30:16.620 ,1,0,0.,12.0,0.,12.0,0.,12.0,0.,12.0
1986-01-24 03:30:28.620 ,2,1,0.,12.0,0.,12.0,0.,12.0,0.,12.0
1986-01-24 03:30:40.620 ,2,1,0.,12.0,0.,12.0,0.,12.0,0.,12.0
1986-01-24 03:30:52.620 ,2,0,0.,12.0,0.,12.0,0.,12.0,0.,12.0
1986-01-24 03:31:04.620 ,2,0,0.,12.0,0.,12.0,0.,12.0,0.,12.0
1986-01-24 03:31:16.620 ,3,1,0.,12.0,0.,12.0,0.,12.0,0.,12.0
1986-01-24 03:31:28.620 ,3,1,0.,12.0,0.,12.0,0.,12.0,0.,12.0
1986-01-24 03:31:40.620 ,3,0,0.,12.0,0.,12.0,0.,12.0,0.,12.0
1986-01-24 03:31:52.620 ,3,0,0.,12.0,0.,12.0,0.,12.0,0.,12.0
1986-01-24 03:32:04.620 ,4,1,0.,12.0,0.,12.0,0.,12.0,0.,12.0
1986-01-24 03:32:16.620 ,4,1,0.,12.0,0.,12.0,0.,12.0,0.,12.0
1986-01-24 03:32:28.620 ,4,0,0.,12.0,0.,12.0,0.,12.0,0.,12.0
1986-01-24 03:32:40.620 ,4,0,0.,12.0,0.,12.0,0.,12.0,0.,12.0
1986-01-24 03:32:52.620 ,5,1,0.,12.0,0.,12.0,0.,12.0,0.,12.0
1986-01-24 03:33:04.620 ,5,1,0.,12.0,0.,12.0,0.,12.0,0.,12.0
1986-01-24 03:33:16.620 ,5,0,0.,12.0,0.,12.0,0.,12.0,0.,12.0
1986-01-24 03:33:28.620 ,5,0,0.,12.0,0.,12.0,0.,12.0,0.,12.0
1986-01-24 03:33:40.620 ,6,1,0.,12.0,0.,12.0,0.,12.0,0.,12.0
1986-01-24 03:33:52.620 ,6,1,0.,12.0,0.,12.0,0.,12.0,0.,12.0
1986-01-24 03:34:04.620 ,6,0,0.,12.0,0.,12.0,0.,12.0,0.,12.0
1986-01-24 03:34:16.620 ,6,0,0.,12.0,0.,12.0,0.,12.0,0.,12.0
1986-01-24 03:34:28.620 ,7,1,0.,12.0,0.,12.0,0.,12.0,0.,12.0
1986-01-24 03:34:40.620 ,7,1,0.,12.0,0.,12.0,0.,12.0,0.,12.0
1986-01-24 03:34:52.620 ,7,0,0.,12.0,0.,12.0,0.,12.0,0.,12.0
1986-01-24 03:35:04.620 ,7,0,0.,12.0,0.,12.0,0.,12.0,0.,12.0
1986-01-24 03:35:16.620 ,7,1,0.,12.0,0.,12.0,0.,12.0,0.,12.0
1986-01-24 03:35:28.620 ,7,1,0.,12.0,0.,12.0,0.,12.0,0.,12.0
1986-01-24 03:35:40.620 ,7,0,0.,12.0,0.,12.0,0.,12.0,0.,12.0
1986-01-24 03:35:52.620 ,7,0,0.,12.0,0.,12.0,0.,12.0,0.,12.0
1986-01-24 03:36:04.620 ,6,1,0.,12.0,0.,12.0,0.,12.0,0.,12.0
1986-01-24 03:36:16.620 ,6,1,0.,12.0,0.,12.0,0.,12.0,0.,12.0
1986-01-24 03:36:28.620 ,6,0,0.,12.0,0.,12.0,0.,12.0,0.,12.0
1986-01-24 03:36:40.620 ,6,0,0.,12.0,0.,12.0,0.,12.0,0.,12.0
1986-01-24 03:36:52.620 ,5,1,0.,12.0,0.,12.0,0.,12.0,0.,12.0
1986-01-24 03:37:04.620 ,5,1,0.,12.0,0.,12.0,0.,12.0,0.,12.0
1986-01-24 03:37:16.620 ,5,0,0.,12.0,0.,12.0,0.,12.0,0.,12.0
1986-01-24 03:37:28.620 ,5,0,0.,12.0,0.,12.0,0.,12.0,0.,12.0
1986-01-24 03:37:40.620 ,4,1,0.,12.0,0.,12.0,0.,12.0,0.,12.0
1986-01-24 03:37:52.620 ,4,1,0.,12.0,0.,12.0,0.,12.0,0.,12.0
1986-01-24 03:38:04.620 ,4,0,0.,12.0,0.,12.0,0.,12.0,0.,12.0
1986-01-24 03:38:16.620 ,4,0,0.,12.0,0.,12.0,0.,12.0,0.,12.0
1986-01-24 03:38:28.620 ,3,1,0.,12.0,0.,12.0,0.,12.0,0.,12.0
1986-01-24 03:38:40.620 ,3,1,0.,12.0,0.,12.0,0.,12.0,0.,12.0
1986-01-24 03:38:52.620 ,3,0,0.,12.0,0.,12.0,0.,12.0,0.,12.0
1986-01-24 03:39:04.620 ,3,0,0.,12.0,0.,12.0,0.,12.0,0.,12.0
1986-01-24 03:39:16.620 ,2,1,0.,12.0,0.,12.0,0.,12.0,0.,12.0
1986-01-24 03:39:28.620 ,2,1,0.,12.0,0.,12.0,0.,12.0,0.,12.0
1986-01-24 03:39:40.620 ,2,0,0.,12.0,0.,12.0,0.,12.0,0.,12.0
1986-01-24 03:39:52.620 ,2,0,0.,12.0,0.,12.0,0.,12.0,0.,12.0
1986-01-24 03:40:04.620 ,1,1,0.,12.0,0.,12.0,0.,12.0,0.,12.0
1986-01-24 03:40:16.620 ,1,1,0.,12.0,0.,12.0,0.,12.0,0.,12.0
1986-01-24 03:40:28.620 ,1,0,0.,12.0,0.,12.0,0.,12.0,0.,12.0
1986-01-24 03:40:40.620 ,1,0,0.,12.0,0.,12.0,0.,12.0,0.,12.0
1986-01-24 03:40:52.620 ,0,1,0.,12.0,0.,12.0,0.,12.0,0.,12.0
1986-01-24 03:41:04.620 ,0,1,0.,12.0,0.,12.0,0.,12.0,0.,12.0
1986-01-24 03:41:16.620 ,0,0,0.,12.0,0.,12.0,0.,12.0,0.,12.0
1986-01-24 03:41:28.620 ,0,0,0.,12.0,0.,12.0,0.,12.0,0.,12.0
1986-01-24 03:41:40.620 ,0,1,0.,12.0,0.,12.0,0.,12.0,0.,12.0
1986-01-24 03:41:52.620 ,0,1,0.,12.0,0.,12.0,0.,12.0,0.,12.0
1986-01-24 03:42:04.620 ,0,0,0.,12.0,0.,12.0,0.,12.0,0.,12.0
1986-01-24 03:42:16.620 ,0,0,0.,12.0,0.,12.0,0.,12.0,0.,12.0
1986-01-24 03:42:28.620 ,1,1,0.,12.0,0.,12.0,0.,12.0,0.,12.0
1986-01-24 03:42:40.620 ,1,1,0.,12.0,0.,12.0,0.,12.0,0.,12.0
1986-01-24 03:42:52.620 ,1,0,0.,12.0,0.,12.0,0.,12.0,0.,12.0
1986-01-24 03:43:04.620 ,1,0,0.,12.0,0.,12.0,0.,12.0,0.,12.0
1986-01-24 03:43:16.620 ,2,1,0.,12.0,0.,12.0,0.,12.0,0.,12.0
1986-01-24 03:43:28.620 ,2,1,0.,12.0,0.,12.0,0.,12.0,0.,12.0
1986-01-24 03:43:40.620 ,2,0,0.,12.0,0.,12.0,0.,12.0,0.,12.0
1986-01-24 03:43:52.620 ,2,0,0.,12.0,0.,12.0,0.,12.0,0.,12.0
1986-01-24 03:44:04.620 ,3,1,0.,12.0,0.,12.0,0.,12.0,0.,12.0
1986-01-24 03:44:16.620 ,3,1,0.,12.0,0.,12.0,0.,12.0,0.,12.0
1986-01-24 03:44:28.620 ,3,0,0.,12.0,0.,12.0,0.,12.0,0.,12.0
1986-01-24 03:44:40.620 ,3,0,0.,12.0,0.,12.0,0.,12.0,0.,12.0
1986-01-24 03:44:52.620 ,4,1,0.,12.0,0.,12.0,0.,12.0,0.,12.0
1986-01-24 03:45:04.620 ,4,1,0.,12.0,0.,12.0,0.,12.0,0.,12.0
1986-01-24 03:45:16.620 ,4,0,0.,12.0,0.,12.0,0.,12.0,0.,12.0
1986-01-24 03:45:28.620 ,4,0,0.,12.0,0.,12.0,0.,12.0,0.,12.0
1986-01-24 03:45:40.620 ,5,1,0.,12.0,0.,12.0,0.,12.0,0.,12.0
1986-01-24 03:45:52.620 ,5,1,0.,12.0,0.,12.0,0.,12.0,0.,12.0
1986-01-24 03:46:04.620 ,5,0,0.,12.0,0.,12.0,0.,12.0,0.,12.0
1986-01-24 03:46:16.620 ,5,0,0.,12.0,0.,12.0,0.,12.0,0.,12.0
1986-01-24 03:46:28.620 ,6,1,0.,12.0,0.,12.0,0.,12.0,0.,12.0
1986-01-24 03:46:40.620 ,6,1,0.,12.0,0.,12.0,0.,12.0,0.,12.0
1986-01-24 03:46:52.620 ,6,0,0.,12.0,0.,12.0,0.,12.0,0.,12.0
1986-01-24 03:47:04.620 ,6,0,0.,12.0,0.,12.0,0.,12.0,0.,12.0
1986-01-24 03:47:16.620 ,7,1,0.,12.0,0.,12.0,0.,12.0,0.,12.0
1986-01-24 03:47:28.620 ,7,1,0.,12.0,0.,12.0,0.,12.0,0.,12.0
1986-01-24 03:47:40.620 ,7,0,0.,12.0,0.,12.0,0.,12.0,0.,12.0
1986-01-24 03:47:52.620 ,7,0,0.,12.0,0.,12.0,0.,12.0,0.,12.0
1986-01-24 03:48:04.620 ,7,1,0.,12.0,0.,12.0,0.,12.0,0.,12.0
1986-01-24 03:48:16.620 ,7,1,0.,12.0,0.,12.0,0.,12.0,0.,12.0
1986-01-24 03:48:28.620 ,7,0,0.,12.0,0.,12.0,0.,12.0,0.,12.0
1986-01-24 03:48:40.620 ,7,0,0.,12.0,0.,12.0,0.,12.0,0.,12.0
1986-01-24 03:48:52.620 ,6,1,0.,12.0,0.,12.0,0.,12.0,0.,12.0
1986-01-24 03:49:04.620 ,6,1,0.,12.0,0.,12.0,0.,12.0,0.,12.0
1986-01-24 03:49:16.620 ,6,0,0.,12.0,0.,12.0,0.,12.0,0.,12.0
1986-01-24 03:49:28.620 ,6,0,0.,12.0,0.,12.0,0.,12.0,0.,12.0
1986-01-24 03:49:40.620 ,5,1,0.,12.0,0.,12.0,0.,12.0,0.,12.0
1986-01-24 03:49:52.620 ,5,1,0.,12.0,0.,12.0,0.,12.0,0.,12.0
1986-01-24 03:50:04.620 ,5,0,0.,12.0,0.,12.0,0.,12.0,0.,12.0
1986-01-24 03:50:16.620 ,5,0,0.,12.0,0.,12.0,0.,12.0,0.,12.0
1986-01-24 03:50:28.620 ,4,1,0.,12.0,0.,12.0,0.,12.0,0.,12.0
1986-01-24 03:50:40.620 ,4,1,0.,12.0,0.,12.0,0.,12.0,0.,12.0
1986-01-24 03:50:52.620 ,4,0,0.,12.0,0.,12.0,0.,12.0,0.,12.0
1986-01-24 03:51:04.620 ,4,0,0.,12.0,0.,12.0,0.,12.0,0.,12.0
1986-01-24 03:51:16.620 ,3,1,0.,12.0,0.,12.0,0.,12.0,0.,12.0
1986-01-24 03:51:28.620 ,3,1,0.,12.0,0.,12.0,0.,12.0,0.,12.0
1986-01-24 03:51:40.620 ,3,0,0.,12.0,0.,12.0,0.,12.0,0.,12.0
1986-01-24 03:51:52.620 ,3,0,0.,12.0,0.,12.0,0.,12.0,0.,12.0
1986-01-24 03:52:04.620 ,2,1,0.,12.0,0.,12.0,0.,12.0,0.,12.0
1986-01-24 03:52:16.620 ,2,1,0.,12.0,0.,12.0,0.,12.0,0.,12.0
1986-01-24 03:52:52.620 ,1,1,0.,12.0,0.,12.0,0.,12.0,0.,12.0
1986-01-24 03:53:04.620 ,1,1,0.,12.0,0.,12.0,0.,12.0,0.,12.0
1986-01-24 03:53:16.620 ,1,0,0.,12.0,0.,12.0,0.,12.0,0.,12.0
1986-01-24 03:53:28.620 ,1,0,0.,12.0,0.,12.0,0.,12.0,0.,12.0
1986-01-24 03:53:40.620 ,0,1,0.,12.0,0.,12.0,0.,12.0,0.,12.0
1986-01-24 03:53:52.620 ,0,1,0.,12.0,0.,12.0,0.,12.0,0.,12.0
1986-01-24 03:54:04.620 ,0,0,0.,12.0,0.,12.0,0.,12.0,0.,12.0
1986-01-24 03:54:16.620 ,0,0,0.,12.0,0.,12.0,0.,12.0,0.,12.0
1986-01-24 03:54:28.620 ,0,1,0.,12.0,0.,12.0,0.,12.0,0.,12.0
1986-01-24 03:54:40.620 ,0,1,0.,12.0,0.,12.0,0.,12.0,0.,12.0
1986-01-24 03:54:52.620 ,0,0,0.,12.0,0.,12.0,0.,12.0,0.,12.0
1986-01-24 03:55:04.620 ,0,0,0.,12.0,0.,12.0,0.,12.0,0.,12.0
1986-01-24 03:55:16.620 ,1,1,0.,12.0,0.,12.0,0.,12.0,0.,12.0
1986-01-24 03:55:28.620 ,1,1,0.,12.0,0.,12.0,0.,12.0,0.,12.0
1986-01-24 03:55:40.620 ,1,0,0.,12.0,0.,12.0,0.,12.0,0.,12.0
1986-01-24 03:55:52.620 ,1,0,0.,12.0,0.,12.0,0.,12.0,0.,12.0
1986-01-24 03:56:04.620 ,2,1,0.,12.0,0.,12.0,0.,12.0,0.,12.0
1986-01-24 03:56:16.620 ,2,1,0.,12.0,0.,12.0,0.,12.0,0.,12.0
1986-01-24 03:56:28.620 ,2,0,0.,12.0,0.,12.0,0.,12.0,0.,12.0
1986-01-24 03:56:40.620 ,2,0,0.,12.0,0.,12.0,0.,12.0,0.,12.0
1986-01-24 03:56:52.620 ,3,1,0.,12.0,0.,12.0,0.,12.0,0.,12.0
1986-01-24 03:57:04.620 ,3,1,0.,12.0,0.,12.0,0.,12.0,0.,12.0
1986-01-24 03:57:16.620 ,3,0,0.,12.0,0.,12.0,0.,12.0,0.,12.0
1986-01-24 03:57:28.620 ,3,0,0.,12.0,0.,12.0,0.,12.0,0.,12.0
1986-01-24 03:57:40.620 ,4,1,0.,12.0,0.,12.0,0.,12.0,0.,12.0
1986-01-24 03:57:52.620 ,4,1,0.,12.0,0.,12.0,0.,12.0,0.,12.0
1986-01-24 03:58:04.620 ,4,0,0.,12.0,0.,12.0,0.,12.0,0.,12.0
1986-01-24 03:58:16.620 ,4,0,0.,12.0,0.,12.0,0.,12.0,0.,12.0
1986-01-24 03:58:28.620 ,5,1,0.,12.0,0.,12.0,0.,12.0,0.,12.0
1986-01-24 03:58:40.620 ,5,1,0.,12.0,0.,12.0,0.,12.0,0.,12.0
1986-01-24 03:58:52.620 ,5,0,0.,12.0,0.,12.0,0.,12.0,0.,12.0
1986-01-24 03:59:04.620 ,5,0,0.,12.0,0.,12.0,0.,12.0,0.,12.0
1986-01-24 03:59:16.620 ,6,1,0.,12.0,0.,12.0,0.,12.0,0.,12.0
1986-01-24 03:59:28.620 ,6,1,0.,12.0,0.,12.0,0.,12.0,0.,12.0
1986-01-24 03:59:40.620 ,6,0,0.,12.0,0.,12.0,0.,12.0,0.,12.0
1986-01-24 03:59:52.620 ,6,0,0.,12.0,0.,12.0,0.,12.0,0.,12.0
1986-01-24 04:00:04.620 ,7,1,0.,12.0,0.,12.0,0.,12.0,0.,12.0
1986-01-24 04:00:16.620 ,7,1,0.,12.0,0.,12.0,0.,12.0,0.,12.0
1986-01-24 04:00:28.620 ,7,0,0.,12.0,0.,12.0,0.,12.0,0.,12.0
1986-01-24 04:00:40.620 ,7,0,0.,12.0,0.,12.0,0.,12.0,0.,12.0
1986-01-24 04:00:52.620 ,7,1,0.,12.0,0.,12.0,0.,12.0,0.,12.0
1986-01-24 04:01:04.620 ,7,1,0.,12.0,0.,12.0,0.,12.0,0.,12.0
1986-01-24 04:01:16.620 ,7,0,0.,12.0,0.,12.0,0.,12.0,0.,12.0
1986-01-24 04:01:28.620 ,7,0,0.,12.0,0.,12.0,0.,12.0,0.,12.0
1986-01-24 04:01:40.620 ,6,1,0.,12.0,0.,12.0,0.,12.0,0.,12.0
1986-01-24 04:01:52.620 ,6,1,0.,12.0,0.,12.0,0.,12.0,0.,12.0
1986-01-24 04:02:04.620 ,6,0,0.,12.0,0.,12.0,0.,12.0,0.,12.0
1986-01-24 04:02:16.620 ,6,0,0.,12.0,0.,12.0,0.,12.0,0.,12.0
1986-01-24 04:02:28.620 ,5,1,0.,12.0,0.,12.0,0.,12.0,0.,12.0
1986-01-24 04:02:40.620 ,5,1,0.,12.0,0.,12.0,0.,12.0,0.,12.0
1986-01-24 04:02:52.620 ,5,0,0.,12.0,0.,12.0,0.,12.0,0.,12.0
1986-01-24 04:03:04.620 ,5,0,0.,12.0,0.,12.0,0.,12.0,0.,12.0
1986-01-24 04:03:16.620 ,4,1,0.,12.0,0.,12.0,0.,12.0,0.,12.0
1986-01-24 04:03:28.620 ,4,1,0.,12.0,0.,12.0,0.,12.0,0.,12.0
1986-01-24 04:03:40.620 ,4,0,0.,12.0,0.,12.0,0.,12.0,0.,12.0
1986-01-24 04:03:52.620 ,4,0,0.,12.0,0.,12.0,0.,12.0,0.,12.0
1986-01-24 04:04:04.620 ,3,1,0.,12.0,0.,12.0,0.,12.0,0.,12.0
1986-01-24 04:04:16.620 ,3,1,0.,12.0,0.,12.0,0.,12.0,0.,12.0
1986-01-24 04:04:28.620 ,3,0,0.,12.0,0.,12.0,0.,12.0,0.,12.0
1986-01-24 04:04:40.620 ,3,0,0.,12.0,0.,12.0,0.,12.0,0.,12.0
1986-01-24 04:04:52.620 ,2,1,0.,12.0,0.,12.0,0.,12.0,0.,12.0
1986-01-24 04:05:04.620 ,2,1,0.,12.0,0.,12.0,0.,12.0,0.,12.0
1986-01-24 04:05:16.620 ,2,0,0.,12.0,0.,12.0,0.,12.0,0.,12.0
1986-01-24 04:05:28.620 ,2,0,0.,12.0,0.,12.0,0.,12.0,0.,12.0
1986-01-24 04:05:40.620 ,1,1,0.,12.0,0.,12.0,0.,12.0,0.,12.0
1986-01-24 04:05:52.620 ,1,1,0.,12.0,0.,12.0,0.,12.0,0.,12.0
1986-01-24 04:06:04.620 ,1,0,0.,12.0,0.,12.0,0.,12.0,0.,12.0
1986-01-24 04:06:16.620 ,1,0,0.,12.0,0.,12.0,0.,12.0,0.,12.0
1986-01-24 04:06:28.620 ,0,1,0.,12.0,0.,12.0,0.,12.0,0.,12.0
1986-01-24 04:06:40.620 ,0,1,0.,12.0,0.,12.0,0.,12.0,0.,12.0
1986-01-24 04:06:52.620 ,0,0,0.,12.0,0.,12.0,0.,12.0,0.,12.0
1986-01-24 04:07:04.620 ,0,0,0.,12.0,0.,12.0,0.,12.0,0.,12.0
1986-01-24 04:07:16.620 ,0,1,0.,12.0,0.,12.0,0.,12.0,0.,12.0
1986-01-24 04:07:28.620 ,0,1,0.,12.0,0.,12.0,0.,12.0,0.,12.0
1986-01-24 04:07:40.620 ,0,0,0.,12.0,0.,12.0,0.,12.0,0.,12.0
1986-01-24 04:07:52.620 ,0,0,0.,12.0,0.,12.0,0.,12.0,0.,12.0
1986-01-24 04:08:04.620 ,1,1,0.,12.0,0.,12.0,0.,12.0,0.,12.0
1986-01-24 04:08:16.620 ,1,1,0.,12.0,0.,12.0,0.,12.0,0.,12.0
1986-01-24 04:08:28.620 ,1,0,0.,12.0,0.,12.0,0.,12.0,0.,12.0
1986-01-24 04:08:40.620 ,1,0,0.,12.0,0.,12.0,0.,12.0,0.,12.0
1986-01-24 04:08:52.620 ,2,1,0.,12.0,0.,12.0,0.,12.0,0.,12.0
1986-01-24 04:09:04.620 ,2,1,0.,12.0,0.,12.0,0.,12.0,0.,12.0
1986-01-24 04:09:16.620 ,2,0,0.,12.0,0.,12.0,0.,12.0,0.,12.0
1986-01-24 04:09:28.620 ,2,0,0.,12.0,0.,12.0,0.,12.0,0.,12.0
1986-01-24 04:09:40.620 ,3,1,0.,12.0,0.,12.0,0.,12.0,0.,12.0
1986-01-24 04:09:52.620 ,3,1,0.,12.0,0.,12.0,0.,12.0,0.,12.0
1986-01-24 04:10:04.620 ,3,0,0.,12.0,0.,12.0,0.,12.0,0.,12.0
1986-01-24 04:10:16.620 ,3,0,0.,12.0,0.,12.0,0.,12.0,0.,12.0
1986-01-24 04:10:28.620 ,4,1,0.,12.0,0.,12.0,0.,12.0,0.,12.0
1986-01-24 04:10:40.620 ,4,1,0.,12.0,0.,12.0,0.,12.0,0.,12.0
1986-01-24 04:10:52.620 ,4,0,0.,12.0,0.,12.0,0.,12.0,0.,12.0
1986-01-24 04:11:04.620 ,4,0,0.,12.0,0.,12.0,0.,12.0,0.,12.0
1986-01-24 04:11:16.620 ,5,1,0.,12.0,0.,12.0,0.,12.0,0.,12.0
1986-01-24 04:11:28.620 ,5,1,0.,12.0,0.,12.0,0.,12.0,0.,12.0
1986-01-24 04:11:40.620 ,5,0,0.,12.0,0.,12.0,0.,12.0,0.,12.0
1986-01-24 04:11:52.620 ,5,0,0.,12.0,0.,12.0,0.,12.0,0.,12.0
1986-01-24 04:12:04.620 ,6,1,0.,12.0,0.,12.0,0.,12.0,0.,12.0
1986-01-24 04:12:16.620 ,6,1,0.,12.0,0.,12.0,0.,12.0,0.,12.0
1986-01-24 04:12:28.620 ,6,0,0.,12.0,0.,12.0,0.,12.0,0.,12.0
1986-01-24 04:12:40.620 ,6,0,0.,12.0,0.,12.0,0.,12.0,0.,12.0
1986-01-24 04:12:52.620 ,7,1,0.,12.0,0.,12.0,0.,12.0,0.,12.0
1986-01-24 04:13:04.620 ,7,1,0.,12.0,0.,12.0,0.,12.0,0.,12.0
1986-01-24 04:13:16.620 ,7,0,0.,12.0,0.,12.0,0.,12.0,0.,12.0
1986-01-24 04:13:28.620 ,7,0,0.,12.0,0.,12.0,0.,12.0,0.,12.0
1986-01-24 04:13:40.620 ,7,1,0.,12.0,0.,12.0,0.,12.0,0.,12.0
1986-01-24 04:13:52.620 ,7,1,0.,12.0,0.,12.0,0.,12.0,0.,12.0
1986-01-24 04:14:04.620 ,7,0,0.,12.0,0.,12.0,0.,12.0,0.,12.0
1986-01-24 04:14:16.620 ,7,0,0.,12.0,0.,12.0,0.,12.0,0.,12.0
1986-01-24 04:14:28.620 ,6,1,0.,12.0,0.,12.0,0.,12.0,0.,12.0
1986-01-24 04:14:40.620 ,6,1,0.,12.0,0.,12.0,0.,12.0,0.,12.0
1986-01-24 04:14:52.620 ,6,0,0.,12.0,0.,12.0,0.,12.0,0.,12.0
1986-01-24 04:15:04.620 ,6,0,0.,12.0,0.,12.0,0.,12.0,0.,12.0
1986-01-24 04:15:16.620 ,5,1,0.,12.0,0.,12.0,0.,12.0,0.,12.0
1986-01-24 04:15:28.620 ,5,1,0.,12.0,0.,12.0,0.,12.0,0.,12.0
1986-01-24 04:15:40.620 ,5,0,0.,12.0,0.,12.0,0.,12.0,0.,12.0
1986-01-24 04:15:52.620 ,5,0,0.,12.0,0.,12.0,0.,12.0,0.,12.0
1986-01-24 04:16:04.620 ,4,1,0.,12.0,0.,12.0,0.,12.0,0.,12.0
1986-01-24 04:16:16.620 ,4,1,0.,12.0,0.,12.0,0.,12.0,0.,12.0
1986-01-24 04:16:28.620 ,4,0,0.,12.0,0.,12.0,0.,12.0,0.,12.0
1986-01-24 04:16:40.620 ,4,0,0.,12.0,0.,12.0,0.,12.0,0.,12.0
1986-01-24 04:16:52.620 ,3,1,0.,12.0,0.,12.0,0.,12.0,0.,12.0
1986-01-24 04:17:04.620 ,3,1,0.,12.0,0.,12.0,0.,12.0,0.,12.0
1986-01-24 04:17:16.620 ,3,0,0.,12.0,0.,12.0,0.,12.0,0.,12.0
1986-01-24 04:17:28.620 ,3,0,0.,12.0,0.,12.0,0.,12.0,0.,12.0
1986-01-24 04:17:40.620 ,2,1,0.,12.0,0.,12.0,0.,12.0,0.,12.0
1986-01-24 04:17:52.620 ,2,1,0.,12.0,0.,12.0,0.,12.0,0.,12.0